• Em Portugal
  • Lista de países
  • Para 7 dias
  • Temperatura da água
  • Mapas de satélite
  • Mapa do tempo
  • Widgets de tempo
  • user-avatar
    Iniciar Sessão

    Previsão horária em Cuiaba

    Hoje, 21 Setembro, Quinta-feira

    Tempo Temperatura Precipitação Vento Pressão Humidade
    00:00 +32°C° 0 mm 2 m/s 739 mmHg 21%
    01:00 +32°C° 0 mm 2 m/s 739 mmHg 22%
    02:00 +33°C° 0 mm 3 m/s 739 mmHg 22%
    03:00 +31°C° 0 mm 2 m/s 739 mmHg 23%
    04:00 +31°C° 0 mm 2 m/s 739 mmHg 24%
    05:00 +31°C° 0 mm 2 m/s 739 mmHg 25%
    06:00 +32°C° 0 mm 2 m/s 740 mmHg 23%
    07:00 +35°C° 0 mm 2 m/s 741 mmHg 21%
    08:00 +37°C° 0 mm 2 m/s 741 mmHg 19%
    09:00 +39°C° 0 mm 2 m/s 741 mmHg 17%
    10:00 +41°C° 0 mm 2 m/s 741 mmHg 14%
    11:00 +43°C° 0 mm 2 m/s 741 mmHg 12%
    12:00 +43°C° 0 mm 2 m/s 740 mmHg 11%
    13:00 +45°C° 0 mm 2 m/s 739 mmHg 11%
    14:00 +45°C° 0 mm 2 m/s 738 mmHg 10%
    15:00 +42°C° 0 mm 2 m/s 738 mmHg 12%
    16:00 +41°C° 0 mm 2 m/s 738 mmHg 13%
    17:00 +40°C° 0 mm 2 m/s 738 mmHg 14%
    18:00 +38°C° 0 mm 2 m/s 739 mmHg 16%
    19:00 +37°C° 0 mm 2 m/s 739 mmHg 17%
    20:00 +34°C° 0 mm 1 m/s 740 mmHg 19%
    21:00 +34°C° 0 mm 2 m/s 740 mmHg 21%
    22:00 +34°C° 0 mm 2 m/s 740 mmHg 22%
    23:00 +32°C° 0 mm 2 m/s 740 mmHg 24%

    Amanhã, 22 Setembro, Sexta-feira

    Tempo Temperatura Precipitação Vento Pressão Humidade
    00:00 +31°C° 0 mm 2 m/s 740 mmHg 26%
    01:00 +30°C° 0 mm 2 m/s 740 mmHg 29%
    02:00 +30°C° 0 mm 1 m/s 739 mmHg 31%
    03:00 +29°C° 0 mm 1 m/s 739 mmHg 32%
    04:00 +29°C° 0 mm 1 m/s 740 mmHg 34%
    05:00 +28°C° 0 mm 1 m/s 740 mmHg 35%
    06:00 +30°C° 0 mm 1 m/s 740 mmHg 31%
    07:00 +34°C° 0 mm 2 m/s 741 mmHg 28%
    08:00 +36°C° 0 mm 2 m/s 741 mmHg 25%
    09:00 +38°C° 0 mm 2 m/s 741 mmHg 21%
    10:00 +40°C° 0 mm 2 m/s 741 mmHg 18%
    11:00 +43°C° 0 mm 2 m/s 741 mmHg 14%
    12:00 +43°C° 0 mm 2 m/s 740 mmHg 14%
    13:00 +43°C° 0 mm 1 m/s 739 mmHg 13%
    14:00 +43°C° 0 mm 1 m/s 737 mmHg 12%
    15:00 +42°C° 0 mm 1 m/s 737 mmHg 13%
    16:00 +41°C° 0 mm 1 m/s 737 mmHg 14%
    17:00 +40°C° 0 mm 1 m/s 737 mmHg 15%
    18:00 +37°C° 0 mm 1 m/s 738 mmHg 17%
    19:00 +35°C° 0 mm 1 m/s 738 mmHg 18%
    20:00 +34°C° 0 mm 1 m/s 739 mmHg 20%
    21:00 +33°C° 0 mm 1 m/s 739 mmHg 21%
    22:00 +32°C° 0 mm 1 m/s 739 mmHg 21%
    23:00 +31°C° 0 mm 1 m/s 739 mmHg 22%

    Depois de amanhã, 23 Setembro, Sábado

    Tempo Temperatura Precipitação Vento Pressão Humidade
    00:00 +31°C° 0 mm 1 m/s 739 mmHg 23%
    01:00 +31°C° 0 mm 1 m/s 738 mmHg 24%
    02:00 +30°C° 0 mm 1 m/s 738 mmHg 24%
    03:00 +30°C° 0 mm 1 m/s 738 mmHg 25%
    04:00 +29°C° 0 mm 1 m/s 738 mmHg 26%
    05:00 +29°C° 0 mm 1 m/s 738 mmHg 27%
    06:00 +31°C° 0 mm 1 m/s 739 mmHg 24%
    07:00 +34°C° 0 mm 1 m/s 740 mmHg 22%
    08:00 +36°C° 0 mm 1 m/s 740 mmHg 19%
    09:00 +40°C° 0 mm 1 m/s 740 mmHg 17%
    10:00 +42°C° 0 mm 1 m/s 740 mmHg 14%
    11:00 +45°C° 0 mm 1 m/s 739 mmHg 12%
    12:00 +43°C° 0 mm 2 m/s 739 mmHg 13%
    13:00 +42°C° 0 mm 2 m/s 738 mmHg 14%
    14:00 +41°C° 0 mm 2 m/s 737 mmHg 14%
    15:00 +41°C° 0 mm 2 m/s 737 mmHg 15%
    16:00 +40°C° 0 mm 3 m/s 737 mmHg 15%
    17:00 +39°C° 0 mm 3 m/s 737 mmHg 16%
    18:00 +38°C° 0 mm 2 m/s 737 mmHg 17%
    19:00 +36°C° 0 mm 2 m/s 738 mmHg 19%
    20:00 +35°C° 0 mm 2 m/s 738 mmHg 20%
    21:00 +33°C° 0 mm 1 m/s 739 mmHg 21%
    22:00 +33°C° 0 mm 1 m/s 739 mmHg 21%
    23:00 +33°C° 0 mm 1 m/s 739 mmHg 22%

    24 Setembro, Domingo

    Tempo Temperatura Precipitação Vento Pressão Humidade
    00:00 +33°C° 0 mm 1 m/s 739 mmHg 22%
    01:00 +32°C° 0 mm 1 m/s 738 mmHg 23%
    02:00 +32°C° 0 mm 1 m/s 738 mmHg 23%
    03:00 +32°C° 0 mm 1 m/s 738 mmHg 24%
    04:00 +31°C° 0 mm 1 m/s 738 mmHg 25%
    05:00 +31°C° 0 mm 1 m/s 738 mmHg 26%
    06:00 +33°C° 0 mm 1 m/s 739 mmHg 24%
    07:00 +35°C° 0 mm 1 m/s 739 mmHg 22%
    08:00 +37°C° 0 mm 1 m/s 740 mmHg 20%
    09:00 +41°C° 0 mm 1 m/s 740 mmHg 18%
    10:00 +44°C° 0 mm 1 m/s 739 mmHg 15%
    11:00 +47°C° 0 mm 1 m/s 739 mmHg 13%
    12:00 +47°C° 0 mm 1 m/s 738 mmHg 13%
    13:00 +43°C° 0 mm 0 m/s 737 mmHg 13%
    14:00 +43°C° 0 mm 0 m/s 736 mmHg 13%
    15:00 +44°C° 0 mm 1 m/s 736 mmHg 14%
    16:00 +42°C° 0 mm 1 m/s 736 mmHg 16%
    17:00 +40°C° 0 mm 1 m/s 736 mmHg 17%
    18:00 +39°C° 0 mm 1 m/s 737 mmHg 18%
    19:00 +37°C° 0 mm 1 m/s 737 mmHg 19%
    20:00 +36°C° 0 mm 1 m/s 738 mmHg 20%
    21:00 +37°C° 0 mm 2 m/s 738 mmHg 20%
    22:00 +37°C° 0 mm 2 m/s 738 mmHg 21%
    23:00 +37°C° 0 mm 2 m/s 738 mmHg 21%

    25 Setembro, Segunda-feira

    Tempo Temperatura Precipitação Vento Pressão Humidade
    00:00 +36°C° 0 mm 2 m/s 738 mmHg 21%
    01:00 +36°C° 0 mm 2 m/s 738 mmHg 22%
    02:00 +36°C° 0 mm 2 m/s 737 mmHg 22%
    03:00 +35°C° 0 mm 2 m/s 738 mmHg 23%
    04:00 +35°C° 0 mm 2 m/s 738 mmHg 24%
    05:00 +34°C° 0 mm 2 m/s 738 mmHg 25%
    06:00 +36°C° 0 mm 2 m/s 739 mmHg 24%
    07:00 +37°C° 0 mm 2 m/s 739 mmHg 22%
    08:00 +39°C° 0 mm 2 m/s 740 mmHg 20%
    09:00 +42°C° 0 mm 3 m/s 740 mmHg 18%
    10:00 +43°C° 0 mm 3 m/s 740 mmHg 17%
    11:00 +45°C° 0 mm 3 m/s 739 mmHg 15%
    12:00 +44°C° 0 mm 3 m/s 738 mmHg 16%
    13:00 +43°C° 0 mm 2 m/s 738 mmHg 16%
    14:00 +42°C° 0 mm 2 m/s 737 mmHg 16%
    15:00 +42°C° 0 mm 2 m/s 737 mmHg 17%
    16:00 +41°C° 0 mm 2 m/s 737 mmHg 19%
    17:00 +40°C° 0 mm 1 m/s 737 mmHg 20%
    18:00 +37°C° 0 mm 1 m/s 737 mmHg 22%
    19:00 +36°C° 0 mm 1 m/s 737 mmHg 24%
    20:00 +34°C° 0 mm 1 m/s 738 mmHg 26%
    21:00 +34°C° 0 mm 1 m/s 738 mmHg 28%
    22:00 +33°C° 0 mm 1 m/s 738 mmHg 29%
    23:00 +32°C° 0 mm 1 m/s 738 mmHg 31%

    26 Setembro, Terça-feira

    Tempo Temperatura Precipitação Vento Pressão Humidade
    00:00 +32°C° 0 mm 1 m/s 737 mmHg 32%
    01:00 +31°C° 0 mm 1 m/s 737 mmHg 33%
    02:00 +30°C° 0 mm 1 m/s 737 mmHg 34%
    03:00 +30°C° 0 mm 1 m/s 737 mmHg 34%
    04:00 +30°C° 0 mm 1 m/s 737 mmHg 35%
    05:00 +29°C° 0 mm 1 m/s 738 mmHg 35%
    06:00 +31°C° 0 mm 1 m/s 738 mmHg 32%
    07:00 +35°C° 0 mm 2 m/s 739 mmHg 28%
    08:00 +37°C° 0 mm 2 m/s 740 mmHg 25%
    09:00 +39°C° 0 mm 2 m/s 739 mmHg 22%
    10:00 +42°C° 0 mm 2 m/s 739 mmHg 19%
    11:00 +45°C° 0 mm 2 m/s 739 mmHg 16%
    12:00 +45°C° 0 mm 2 m/s 738 mmHg 16%
    13:00 +45°C° 0 mm 2 m/s 737 mmHg 15%
    14:00 +44°C° 0 mm 1 m/s 736 mmHg 14%
    15:00 +43°C° 0 mm 1 m/s 736 mmHg 16%
    16:00 +41°C° 0 mm 1 m/s 736 mmHg 17%
    17:00 +40°C° 0 mm 2 m/s 735 mmHg 19%
    18:00 +39°C° 0 mm 2 m/s 736 mmHg 20%
    19:00 +38°C° 0 mm 2 m/s 736 mmHg 22%
    20:00 +37°C° 0 mm 2 m/s 736 mmHg 24%
    21:00 +35°C° 0,2 mm 2 m/s 737 mmHg 28%
    22:00 +34°C° 0,2 mm 2 m/s 737 mmHg 33%
    23:00 +31°C° 0,2 mm 2 m/s 737 mmHg 37%
    Mostrar mais